• En España
  • Lista de países
  • Para 7 días
  • Temperatura del agua
  • Mapa Satelital
  • El tiempo en el mapa
  • Informadores
  • user-avatar
    Iniciar sesión

    Tiempo cada hora Bregenz

    Hoy, 24 Septiembre, Lunes

    Tiempo Temperatura Precipitaciones Viento Presión Humedad
    00:00 +8°C° 2.8 mm 3 mps 648 mmHg 96%
    01:00 +5°C° 0 mm 3 mps 649 mmHg 96%
    02:00 +5°C° 0.4 mm 3 mps 649 mmHg 96%
    03:00 +4°C° 0.4 mm 3 mps 649 mmHg 96%
    04:00 +4°C° 0.4 mm 3 mps 650 mmHg 96%
    05:00 +3°C° 0.1 mm 3 mps 650 mmHg 96%
    06:00 +4°C° 0.1 mm 2 mps 651 mmHg 96%
    07:00 +4°C° 0.1 mm 2 mps 651 mmHg 96%
    08:00 +4°C° 0.1 mm 2 mps 652 mmHg 93%
    09:00 +4°C° 0.1 mm 2 mps 653 mmHg 90%
    10:00 +5°C° 0.1 mm 2 mps 653 mmHg 87%
    11:00 +6°C° 0 mm 2 mps 653 mmHg 80%
    12:00 +6°C° 0 mm 2 mps 654 mmHg 73%
    13:00 +7°C° 0 mm 2 mps 654 mmHg 67%
    14:00 +7°C° 0 mm 3 mps 654 mmHg 65%
    15:00 +7°C° 0 mm 3 mps 654 mmHg 63%
    16:00 +8°C° 0 mm 3 mps 654 mmHg 61%
    17:00 +5°C° 0 mm 3 mps 654 mmHg 67%
    18:00 +4°C° 0 mm 2 mps 654 mmHg 74%
    19:00 +3°C° 0 mm 2 mps 654 mmHg 80%
    20:00 +2°C° 0 mm 2 mps 654 mmHg 82%
    21:00 +2°C° 0 mm 2 mps 654 mmHg 84%
    22:00 +1°C° 0 mm 2 mps 655 mmHg 86%
    23:00 +2°C° 0 mm 1 mps 655 mmHg 86%

    Mañana, 25 Septiembre, Martes

    Tiempo Temperatura Precipitaciones Viento Presión Humedad
    00:00 +1°C° 0 mm 1 mps 655 mmHg 87%
    01:00 +1°C° 0 mm 1 mps 654 mmHg 87%
    02:00 +1°C° 0 mm 1 mps 654 mmHg 86%
    03:00 -1°C° 0 mm 2 mps 654 mmHg 85%
    04:00 -2°C° 0 mm 2 mps 654 mmHg 84%
    05:00 -1°C° 0 mm 2 mps 654 mmHg 80%
    06:00 -1°C° 0 mm 2 mps 655 mmHg 77%
    07:00 -1°C° 0 mm 2 mps 655 mmHg 74%
    08:00 +3°C° 0 mm 2 mps 655 mmHg 65%
    09:00 +4°C° 0 mm 3 mps 656 mmHg 56%
    10:00 +8°C° 0 mm 3 mps 656 mmHg 48%
    11:00 +9°C° 0 mm 3 mps 656 mmHg 47%
    12:00 +9°C° 0 mm 3 mps 656 mmHg 46%
    13:00 +10°C° 0 mm 4 mps 657 mmHg 45%
    14:00 +10°C° 0 mm 4 mps 656 mmHg 48%
    15:00 +10°C° 0 mm 4 mps 656 mmHg 51%
    16:00 +8°C° 0 mm 4 mps 656 mmHg 55%
    17:00 +7°C° 0 mm 3 mps 656 mmHg 64%
    18:00 +4°C° 0 mm 3 mps 655 mmHg 73%
    19:00 +3°C° 0 mm 2 mps 655 mmHg 81%
    20:00 +2°C° 0 mm 2 mps 655 mmHg 80%
    21:00 +2°C° 0 mm 2 mps 655 mmHg 80%
    22:00 +2°C° 0 mm 2 mps 656 mmHg 79%
    23:00 +2°C° 0 mm 2 mps 656 mmHg 78%

    Pasado mañana, 26 Septiembre, Miércoles

    Tiempo Temperatura Precipitaciones Viento Presión Humedad
    00:00 +2°C° 0 mm 2 mps 655 mmHg 78%
    01:00 +3°C° 0 mm 1 mps 655 mmHg 78%
    02:00 +3°C° 0 mm 1 mps 655 mmHg 78%
    03:00 +2°C° 0 mm 1 mps 655 mmHg 78%
    04:00 +2°C° 0 mm 1 mps 655 mmHg 79%
    05:00 +3°C° 0 mm 1 mps 655 mmHg 77%
    06:00 +3°C° 0 mm 1 mps 655 mmHg 75%
    07:00 +3°C° 0 mm 1 mps 655 mmHg 73%
    08:00 +6°C° 0 mm 1 mps 656 mmHg 65%
    09:00 +10°C° 0 mm 1 mps 657 mmHg 56%
    10:00 +13°C° 0 mm 1 mps 658 mmHg 48%
    11:00 +14°C° 0 mm 1 mps 658 mmHg 45%
    12:00 +15°C° 0 mm 1 mps 659 mmHg 43%
    13:00 +16°C° 0 mm 1 mps 659 mmHg 40%
    14:00 +16°C° 0 mm 1 mps 658 mmHg 44%
    15:00 +16°C° 0 mm 1 mps 658 mmHg 47%
    16:00 +15°C° 0 mm 1 mps 658 mmHg 51%
    17:00 +13°C° 0 mm 1 mps 657 mmHg 61%
    18:00 +10°C° 0 mm 1 mps 657 mmHg 72%
    19:00 +7°C° 0 mm 1 mps 656 mmHg 82%
    20:00 +7°C° 0 mm 1 mps 656 mmHg 80%
    21:00 +7°C° 0 mm 1 mps 656 mmHg 79%
    22:00 +7°C° 0 mm 1 mps 656 mmHg 77%
    23:00 +7°C° 0 mm 1 mps 656 mmHg 74%

    27 Septiembre, Jueves

    Tiempo Temperatura Precipitaciones Viento Presión Humedad
    00:00 +6°C° 0 mm 1 mps 656 mmHg 71%
    01:00 +6°C° 0 mm 1 mps 656 mmHg 68%
    02:00 +6°C° 0 mm 1 mps 656 mmHg 65%
    03:00 +6°C° 0 mm 1 mps 656 mmHg 63%
    04:00 +6°C° 0 mm 1 mps 655 mmHg 60%
    05:00 +6°C° 0 mm 1 mps 655 mmHg 59%
    06:00 +7°C° 0 mm 1 mps 655 mmHg 58%
    07:00 +7°C° 0 mm 1 mps 655 mmHg 57%
    08:00 +10°C° 0 mm 1 mps 656 mmHg 52%
    09:00 +13°C° 0 mm 1 mps 657 mmHg 47%
    10:00 +15°C° 0 mm 0 mps 658 mmHg 42%
    11:00 +18°C° 0 mm 1 mps 658 mmHg 41%
    12:00 +19°C° 0 mm 1 mps 657 mmHg 40%
    13:00 +20°C° 0 mm 1 mps 657 mmHg 39%
    14:00 +19°C° 0 mm 1 mps 657 mmHg 43%
    15:00 +19°C° 0 mm 1 mps 657 mmHg 48%
    16:00 +19°C° 0 mm 1 mps 656 mmHg 52%
    17:00 +15°C° 0 mm 1 mps 655 mmHg 61%
    18:00 +12°C° 0 mm 1 mps 654 mmHg 71%
    19:00 +9°C° 0 mm 1 mps 654 mmHg 80%
    20:00 +9°C° 0 mm 1 mps 653 mmHg 79%
    21:00 +9°C° 0 mm 1 mps 653 mmHg 78%
    22:00 +8°C° 0 mm 1 mps 653 mmHg 77%
    23:00 +8°C° 0 mm 1 mps 653 mmHg 75%

    28 Septiembre, Viernes

    Tiempo Temperatura Precipitaciones Viento Presión Humedad
    00:00 +8°C° 0 mm 1 mps 652 mmHg 74%
    01:00 +8°C° 0 mm 1 mps 652 mmHg 73%
    02:00 +8°C° 0 mm 1 mps 652 mmHg 71%
    03:00 +7°C° 0 mm 1 mps 651 mmHg 69%
    04:00 +7°C° 0 mm 1 mps 651 mmHg 68%
    05:00 +7°C° 0 mm 1 mps 650 mmHg 66%
    06:00 +7°C° 0 mm 1 mps 650 mmHg 64%
    07:00 +7°C° 0 mm 1 mps 650 mmHg 62%
    08:00 +10°C° 0 mm 1 mps 651 mmHg 57%
    09:00 +13°C° 0 mm 1 mps 651 mmHg 52%
    10:00 +16°C° 0 mm 1 mps 652 mmHg 47%
    11:00 +18°C° 0 mm 1 mps 652 mmHg 46%
    12:00 +18°C° 0 mm 1 mps 652 mmHg 45%
    13:00 +18°C° 0 mm 2 mps 652 mmHg 44%
    14:00 +18°C° 0 mm 2 mps 651 mmHg 48%
    15:00 +17°C° 0 mm 2 mps 651 mmHg 52%
    16:00 +17°C° 0 mm 2 mps 651 mmHg 56%
    17:00 +14°C° 0 mm 1 mps 650 mmHg 66%
    18:00 +11°C° 0 mm 1 mps 650 mmHg 77%
    19:00 +9°C° 0 mm 1 mps 649 mmHg 87%
    20:00 +8°C° 0 mm 1 mps 649 mmHg 88%
    21:00 +8°C° 0 mm 1 mps 649 mmHg 90%
    22:00 +7°C° 0 mm 1 mps 649 mmHg 91%
    23:00 +7°C° 0 mm 1 mps 649 mmHg 92%

    29 Septiembre, Sábado

    Tiempo Temperatura Precipitaciones Viento Presión Humedad
    00:00 +7°C° 0 mm 1 mps 649 mmHg 92%
    01:00 +6°C° 0 mm 1 mps 649 mmHg 93%
    02:00 +5°C° 0 mm 2 mps 649 mmHg 93%
    03:00 +5°C° 0 mm 2 mps 649 mmHg 94%
    04:00 +5°C° 0 mm 2 mps 649 mmHg 94%
    05:00 +5°C° 0 mm 2 mps 649 mmHg 94%
    06:00 +5°C° 0 mm 2 mps 649 mmHg 93%
    07:00 +5°C° 0 mm 2 mps 649 mmHg 93%
    08:00 +5°C° 0 mm 3 mps 650 mmHg 86%
    09:00 +8°C° 0 mm 3 mps 650 mmHg 78%
    10:00 +9°C° 0 mm 3 mps 650 mmHg 71%
    11:00 +10°C° 0 mm 3 mps 650 mmHg 68%
    12:00 +11°C° 0 mm 3 mps 650 mmHg 64%
    13:00 +12°C° 0 mm 4 mps 650 mmHg 61%
    14:00 +12°C° 0 mm 4 mps 650 mmHg 63%
    15:00 +12°C° 0 mm 4 mps 650 mmHg 65%
    16:00 +12°C° 0 mm 4 mps 649 mmHg 66%
    17:00 +10°C° 0 mm 3 mps 649 mmHg 74%
    18:00 +8°C° 0 mm 3 mps 649 mmHg 82%
    19:00 +6°C° 0 mm 2 mps 648 mmHg 90%
    20:00 +6°C° 0 mm 2 mps 649 mmHg 89%
    21:00 +6°C° 0 mm 2 mps 649 mmHg 88%
    22:00 +5°C° 0 mm 2 mps 649 mmHg 87%
    23:00 +5°C° 0 mm 2 mps 648 mmHg 87%
    Mostrar más